Location: Chugcreek
(42.0500°N, 104.9196°W)
Time: 02:44:07
(UTC+00:00)

X-37B - Visible Passes

Search period start: 19 January 2022 00:00
Search period end: 29 January 2022 00:00
Orbit: 334 x 337 km, 45.0° (Epoch: 11 January)

Date Brightness Start Highest point End Pass type
(mag) Time Alt. Az. Time Alt. Az. Time Alt. Az.
25 Jan 3.1 01:47:24 10° S 01:47:44 11° S 01:47:44 11° S visible
26 Jan 2.9 02:06:42 10° SW 02:07:37 17° SSW 02:07:37 17° SSW visible
27 Jan 2.5 00:52:51 10° S 00:54:33 15° SE 00:56:12 10° ESE visible
27 Jan 3.5 02:26:52 10° WSW 02:27:26 15° WSW 02:27:26 15° WSW visible
28 Jan 1.2 01:12:09 10° SW 01:14:46 35° SSE 01:15:56 23° ESE visible
